DW5977 Weather Reports


Display with metric or nautical units.
time (UTC)temp
F
wind
direction
speed
MPH
gust
MPH
rain 1hr
in
rain 24hr
in
rain mn
in
humidity
%
barometer
mb
20260902162504 78 228 4.0 12.0 0.00 0.00 0.00 77 1014.9
20260902162004 79 226 4.0 11.0 0.00 0.00 0.00 75 1014.9
20260902161525 79 228 3.0 7.0 0.00 0.00 0.00 75 1014.9
20260902161003 80 232 3.0 8.0 0.00 0.00 0.00 75 1014.9
20260902160503 80 221 3.0 8.0 0.00 0.00 0.00 76 1015.2
20260902160024 79 233 3.0 10.0 0.00 0.00 0.00 76 1015.2
20260902155503 79 233 3.0 10.0 0.00 0.00 0.00 75 1015.2
20260902155003 79 213 3.0 9.0 0.00 0.00 0.00 76 1015.1
20260902154503 79 215 3.0 12.0 0.00 0.00 0.00 75 1015.1
20260902154003 79 210 4.0 12.0 0.00 0.00 0.00 75 1015.1
20260902153524 79 197 4.0 11.0 0.00 0.00 0.00 76 1015.1
20260902153024 79 199 4.0 11.0 0.00 0.00 0.00 75 1015.0
20260902152503 79 215 3.0 9.0 0.00 0.00 0.00 76 1015.5
20260902152003 79 210 3.0 12.0 0.00 0.00 0.00 77 1015.5
20260902151503 78 210 3.0 12.0 0.00 0.00 0.00 78 1015.6
20260902151003 78 195 4.0 9.0 0.00 0.00 0.00 79 1015.7
20260902150503 78 179 3.0 9.0 0.00 0.00 0.00 79 1015.7
20260902150003 77 170 4.0 9.0 0.00 0.00 0.00 80 1015.8
20260902145503 77 160 3.0 9.0 0.00 0.00 0.00 80 1015.8
20260902145003 76 151 3.0 8.0 0.00 0.00 0.00 81 1016.1
20260902144503 76 141 3.0 6.0 0.00 0.00 0.00 81 1016.1
20260902144024 75 139 3.0 6.0 0.00 0.00 0.00 82 1015.9
20260902143524 75 156 3.0 8.0 0.00 0.00 0.00 81 1016.0
20260902143003 75 145 3.0 8.0 0.00 0.00 0.00 82 1016.3
20260902142503 75 133 2.0 7.0 0.00 0.00 0.00 83 1016.3
20260902142003 74 146 2.0 7.0 0.00 0.00 0.00 84 1016.1
20260902141503 74 142 2.0 7.0 0.00 0.00 0.00 85 1016.3
20260902141003 73 141 2.0 4.0 0.00 0.00 0.00 85 1016.2
20260902140503 73 141 2.0 4.0 0.00 0.00 0.00 85 1016.4
20260902140003 72 122 2.0 4.0 0.00 0.00 0.00 86 1016.3
20260902135524 72 102 1.0 4.0 0.00 0.00 0.00 86 1016.3
20260902135003 72 93 1.0 4.0 0.00 0.00 0.00 86 1016.3
20260902134503 72 93 1.0 3.0 0.00 0.00 0.00 86 1016.3
20260902134003 72 93 1.0 2.0 0.00 0.00 0.00 86 1016.2
20260902133524 72 93 1.0 3.0 0.00 0.00 0.00 85 1016.3
20260902133024 72 93 1.0 3.0 0.00 0.00 0.00 85 1016.2
20260902132503 72 79 1.0 4.0 0.00 0.00 0.00 85 1016.3
20260902132003 72 70 1.0 4.0 0.00 0.00 0.00 84 1016.2
20260902131503 72 55 0.0 3.0 0.00 0.00 0.00 84 1016.2
20260902131003 72 55 0.0 2.0 0.00 0.00 0.00 84 1016.3
20260902130503 72 55 0.0 3.0 0.00 0.00 0.00 84 1016.5
20260902130003 72 55 1.0 4.0 0.00 0.00 0.00 84 1016.7
20260902125503 72 56 1.0 4.0 0.00 0.00 0.00 84 1016.6
20260902125003 72 23 2.0 8.0 0.00 0.00 0.00 83 1016.7
20260902124503 73 353 4.0 14.0 0.00 0.00 0.00 84 1016.8
20260902124003 73 334 4.0 14.0 0.00 0.00 0.00 84 1017.1
20260902123503 74 290 3.0 11.0 0.00 0.00 0.00 86 1017.1
20260902123003 74 239 2.0 7.0 0.00 0.00 0.00 87 1016.7
20260902122503 74 234 2.0 7.0 0.00 0.00 0.00 88 1016.1
20260902122003 74 222 3.0 8.0 0.00 0.00 0.00 89 1015.3
20260902121503 74 213 3.0 8.0 0.00 0.00 0.00 90 1015.2
20260902121003 73 198 3.0 9.0 0.00 0.00 0.00 91 1014.9
20260902120503 73 186 3.0 9.0 0.00 0.00 0.00 92 1014.9
20260902120024 72 190 2.0 9.0 0.00 0.00 0.00 93 1015.0
20260902115524 72 199 1.0 6.0 0.00 0.00 0.00 93 1014.6
20260902115024 71 0 0.0 0.0 0.00 0.00 0.00 93 1014.5
20260902114524 71 0 0.0 0.0 0.00 0.00 0.00 92 1014.5
20260902114003 71 0 0.0 0.0 0.00 0.00 0.00 92 1014.1
20260902113503 71 0 0.0 0.0 0.00 0.00 0.00 92 1014.0
20260902113003 71 0 0.0 0.0 0.00 0.00 0.00 92 1014.1
20260902112503 71 0 0.0 0.0 0.00 0.00 0.00 92 1014.4
20260902112003 71 0 0.0 0.0 0.00 0.00 0.00 92 1014.4
20260902111503 71 0 0.0 0.0 0.00 0.00 0.00 92 1014.4
20260902111024 71 0 0.0 0.0 0.00 0.00 0.00 92 1014.1
20260902110503 71 0 0.0 0.0 0.00 0.00 0.00 92 1013.8
20260902110005 71 0 0.0 0.0 0.00 0.00 0.00 93 1013.8
20260902105503 71 0 0.0 0.0 0.00 0.00 0.00 92 1013.7
20260902105003 71 0 0.0 0.0 0.00 0.00 0.00 92 1013.7
20260902104503 71 0 0.0 0.0 0.00 0.00 0.00 92 1013.6
20260902104024 71 0 0.0 0.0 0.00 0.00 0.00 92 1013.7
20260902103524 71 0 0.0 0.0 0.00 0.00 0.00 92 1013.6
20260902103003 71 0 0.0 0.0 0.00 0.00 0.00 92 1013.8
20260902102503 71 0 0.0 0.0 0.00 0.00 0.00 92 1014.0
20260902102003 71 0 0.0 0.0 0.00 0.00 0.00 92 1013.7
20260902101503 71 0 0.0 0.0 0.00 0.00 0.00 92 1013.7
20260902101003 71 0 0.0 0.0 0.00 0.00 0.00 92 1013.5
20260902100503 71 0 0.0 0.0 0.00 0.00 0.00 92 1013.6
20260902100024 71 0 0.0 0.0 0.00 0.00 0.00 92 1013.5
20260902095503 71 0 0.0 0.0 0.00 0.00 0.00 92 1013.8
20260902095024 71 0 0.0 0.0 0.00 0.00 0.00 92 1014.1
20260902094503 71 0 0.0 0.0 0.00 0.00 0.00 92 1014.0
20260902094024 71 0 0.0 0.0 0.00 0.00 0.00 92 1014.0
20260902093524 72 0 0.0 0.0 0.00 0.00 0.00 92 1013.9
20260902093003 72 0 0.0 0.0 0.00 0.00 0.00 92 1014.1
20260902092503 72 0 0.0 0.0 0.00 0.00 0.00 92 1014.2
20260902092003 72 188 0.0 3.0 0.00 0.00 0.00 92 1014.3
20260902091503 72 188 0.0 3.0 0.00 0.00 0.00 92 1014.4
20260902091003 72 188 0.0 2.0 0.00 0.00 0.00 92 1014.3
20260902090503 72 188 0.0 2.0 0.00 0.00 0.00 93 1014.6
20260902090004 72 188 0.0 2.0 0.00 0.00 0.00 93 1014.4
20260902085503 72 0 0.0 0.0 0.00 0.00 0.00 93 1014.5
20260902085003 72 189 0.0 2.0 0.00 0.00 0.00 93 1014.6
20260902084524 72 189 0.0 3.0 0.00 0.00 0.00 93 1014.6
20260902084003 71 189 0.0 3.0 0.00 0.00 0.00 93 1014.6
20260902083503 71 0 0.0 0.0 0.00 0.00 0.00 93 1014.6
20260902083003 71 0 0.0 0.0 0.00 0.00 0.00 93 1014.7
20260902082503 71 0 0.0 0.0 0.00 0.00 0.00 93 1014.7
20260902082003 71 0 0.0 0.0 0.00 0.00 0.00 93 1014.9
20260902081503 72 0 0.0 0.0 0.00 0.00 0.00 93 1015.0
20260902081003 72 0 0.0 0.0 0.00 0.00 0.00 93 1015.0
20260902080503 71 0 0.0 0.0 0.00 0.00 0.00 93 1015.0
20260902080003 71 0 0.0 0.0 0.00 0.00 0.00 93 1015.1
20260902075503 71 0 0.0 0.0 0.00 0.00 0.00 93 1015.2
20260902075003 71 0 0.0 0.0 0.00 0.00 0.00 93 1015.2
20260902074503 71 0 0.0 0.0 0.00 0.00 0.00 93 1015.2
20260902074003 71 0 0.0 0.0 0.00 0.00 0.00 93 1015.1
20260902073503 71 0 0.0 0.0 0.00 0.00 0.00 93 1015.0
20260902073003 71 0 0.0 0.0 0.00 0.00 0.00 93 1015.0
20260902072503 71 0 0.0 0.0 0.00 0.00 0.00 93 1015.1
20260902072024 71 0 0.0 0.0 0.00 0.00 0.00 93 1015.1
20260902071503 71 0 0.0 0.0 0.00 0.00 0.00 93 1015.2
20260902071003 71 0 0.0 0.0 0.00 0.00 0.00 93 1015.3
20260902070503 71 0 0.0 0.0 0.00 0.00 0.00 93 1015.3
20260902070004 71 0 0.0 0.0 0.00 0.00 0.00 93 1015.3
20260902065503 71 0 0.0 0.0 0.00 0.00 0.00 93 1015.5
20260902065003 71 0 0.0 0.0 0.00 0.00 0.00 93 1015.3
20260902064524 71 0 0.0 0.0 0.00 0.00 0.00 93 1015.4
20260902064003 71 188 0.0 1.0 0.00 0.00 0.00 93 1015.3
20260902063503 70 189 0.0 3.0 0.00 0.00 0.00 93 1015.4
20260902063024 70 189 1.0 3.0 0.00 0.00 0.00 93 1015.2
20260902062524 70 189 1.0 3.0 0.00 0.00 0.00 93 1015.2
20260902062003 70 189 0.0 2.0 0.00 0.00 0.00 92 1015.4
20260902061524 70 189 0.0 2.0 0.00 0.00 0.00 92 1015.4
20260902061024 70 0 0.0 0.0 0.00 0.00 0.00 93 1015.5
20260902060503 70 0 0.0 0.0 0.00 0.00 0.00 93 1015.5
20260902060024 70 0 0.0 0.0 0.00 0.00 0.00 92 1015.4
20260902055503 70 0 0.0 0.0 0.00 0.00 0.00 92 1015.6
20260902055024 70 0 0.0 0.0 0.00 0.00 0.00 92 1015.5
20260902054503 69 0 0.0 0.0 0.00 0.00 0.00 92 1015.6
20260902054003 69 0 0.0 0.0 0.00 0.00 0.00 92 1015.5
20260902053524 69 0 0.0 0.0 0.00 0.00 0.00 92 1015.4
20260902053024 69 0 0.0 0.0 0.00 0.00 0.00 92 1015.3
20260902052503 69 0 0.0 0.0 0.00 0.00 0.00 92 1015.3
20260902052003 69 0 0.0 0.0 0.00 0.00 0.00 92 1015.3
20260902051503 69 0 0.0 0.0 0.00 0.00 0.00 92 1015.4
20260902051024 69 0 0.0 0.0 0.00 0.00 0.00 92 1015.4
20260902050503 69 0 0.0 0.0 0.00 0.00 0.00 92 1015.3
20260902050005 69 0 0.0 0.0 0.00 0.00 0.00 91 1015.3
20260902045524 69 0 0.0 0.0 0.00 0.00 0.00 92 1015.2
20260902045003 69 0 0.0 0.0 0.00 0.00 0.00 91 1015.3
20260902044524 69 0 0.0 0.0 0.00 0.00 0.00 91 1015.3
20260902044003 70 0 0.0 0.0 0.00 0.00 0.00 91 1015.4
20260902043524 69 0 0.0 0.0 0.00 0.00 0.00 91 1015.4
20260902043003 70 0 0.0 0.0 0.00 0.00 0.00 91 1015.3
20260902042503 70 0 0.0 0.0 0.00 0.00 0.00 91 1015.3
20260902042003 70 0 0.0 0.0 0.00 0.00 0.00 91 1015.1
20260902041503 70 0 0.0 0.0 0.00 0.00 0.00 91 1015.3
20260902041024 70 0 0.0 0.0 0.00 0.00 0.00 91 1015.2
20260902040503 70 0 0.0 0.0 0.00 0.00 0.00 91 1015.2
20260902040003 70 0 0.0 0.0 0.00 0.00 0.00 91 1015.2
20260902035524 70 0 0.0 0.0 0.00 0.01 0.00 91 1015.0
20260902035003 70 0 0.0 0.0 0.00 0.01 0.00 91 1015.0
20260902034503 71 0 0.0 0.0 0.00 0.01 0.00 91 1015.0
20260902034003 71 0 0.0 0.0 0.00 0.01 0.00 91 1015.0
20260902033503 70 0 0.0 0.0 0.00 0.01 0.00 91 1015.0
20260902033003 70 0 0.0 0.0 0.00 0.01 0.00 91 1015.0
20260902032503 71 0 0.0 0.0 0.00 0.01 0.00 91 1014.9
20260902032003 71 0 0.0 0.0 0.00 0.01 0.00 91 1015.0
20260902031503 71 0 0.0 0.0 0.00 0.01 0.00 91 1014.9
20260902031003 71 0 0.0 0.0 0.00 0.01 0.00 90 1015.0
20260902030503 71 0 0.0 0.0 0.00 0.01 0.00 90 1015.0
20260902030003 71 0 0.0 0.0 0.00 0.01 0.00 91 1015.0
20260902025503 71 0 0.0 0.0 0.00 0.01 0.00 90 1015.0
20260902025003 71 0 0.0 0.0 0.00 0.01 0.00 90 1015.0
20260902024524 71 0 0.0 0.0 0.00 0.01 0.00 90 1014.9
20260902024003 71 0 0.0 0.0 0.00 0.01 0.00 90 1014.9
20260902023503 71 0 0.0 0.0 0.00 0.01 0.00 90 1015.0
20260902023003 71 0 0.0 0.0 0.00 0.01 0.00 90 1015.0
20260902022503 71 0 0.0 0.0 0.00 0.01 0.00 89 1015.0
20260902022003 72 0 0.0 0.0 0.00 0.01 0.00 89 1015.0
20260902021503 72 0 0.0 0.0 0.00 0.01 0.00 89 1015.2
20260902021003 72 0 0.0 0.0 0.00 0.01 0.00 89 1015.1
20260902020503 72 0 0.0 0.0 0.00 0.01 0.00 89 1015.2
20260902020024 72 0 0.0 0.0 0.00 0.01 0.00 89 1015.2
20260902015524 72 0 0.0 0.0 0.00 0.01 0.00 88 1015.3
20260902015003 72 0 0.0 0.0 0.00 0.01 0.00 88 1015.0
20260902014503 73 0 0.0 0.0 0.00 0.01 0.00 88 1015.1
20260902014003 73 0 0.0 0.0 0.00 0.01 0.00 88 1015.2
20260902013503 73 0 0.0 0.0 0.00 0.01 0.00 87 1015.1
20260902013024 73 0 0.0 0.0 0.00 0.01 0.00 87 1015.1
20260902012503 73 0 0.0 0.0 0.00 0.01 0.00 87 1015.1
20260902012003 73 0 0.0 0.0 0.00 0.01 0.00 87 1015.1
20260902011503 74 0 0.0 0.0 0.00 0.01 0.00 86 1015.1
20260902011003 74 0 0.0 0.0 0.00 0.01 0.00 86 1015.0
20260902010503 74 0 0.0 0.0 0.00 0.01 0.00 86 1014.9
20260902010024 74 0 0.0 0.0 0.00 0.01 0.00 86 1014.8
20260902005503 74 0 0.0 0.0 0.00 0.01 0.00 85 1014.7
20260902005003 75 0 0.0 0.0 0.00 0.01 0.00 85 1014.7
20260902004503 75 0 0.0 0.0 0.00 0.01 0.00 84 1014.6
20260902004003 75 0 0.0 0.0 0.00 0.01 0.00 84 1014.6
20260902003524 75 0 0.0 0.0 0.00 0.01 0.00 84 1014.6
20260902003003 76 0 0.0 0.0 0.00 0.01 0.00 83 1014.4
20260902002503 76 0 0.0 0.0 0.00 0.01 0.00 83 1014.4
20260902002003 76 0 0.0 0.0 0.00 0.01 0.00 82 1014.3
20260902001503 76 190 0.0 2.0 0.00 0.01 0.00 82 1014.3
20260902001003 77 190 0.0 2.0 0.00 0.01 0.00 82 1014.4
20260902000503 77 190 0.0 2.0 0.00 0.01 0.00 81 1014.3
20260902000003 77 190 0.0 2.0 0.00 0.01 0.00 81 1014.1
20260901235503 77 190 1.0 4.0 0.00 0.01 0.00 80 1014.2
20260901235003 77 189 1.0 5.0 0.00 0.01 0.00 80 1014.1
20260901234524 78 195 2.0 5.0 0.00 0.01 0.00 80 1014.1
20260901234003 78 201 1.0 4.0 0.00 0.01 0.00 79 1014.2
20260901233503 79 199 1.0 3.0 0.00 0.01 0.00 79 1014.1
20260901233003 79 198 1.0 3.0 0.00 0.01 0.00 78 1014.2
20260901232524 79 198 1.0 3.0 0.00 0.01 0.00 77 1014.2
20260901232003 80 199 1.0 3.0 0.00 0.01 0.00 77 1014.4
20260901231503 80 221 1.0 4.0 0.00 0.01 0.00 76 1014.4
20260901231003 80 245 2.0 4.0 0.00 0.01 0.00 76 1014.4
20260901230503 80 252 1.0 3.0 0.00 0.01 0.00 75 1014.4
20260901230024 81 250 2.0 7.0 0.00 0.01 0.00 75 1014.5
20260901225525 81 250 2.0 7.0 0.00 0.01 0.00 75 1014.5
20260901225003 81 250 1.0 3.0 0.00 0.01 0.00 75 1014.4
20260901224503 81 235 2.0 7.0 0.00 0.01 0.00 75 1014.5
20260901224003 81 218 3.0 7.0 0.00 0.01 0.00 75 1014.5
20260901223503 81 213 3.0 7.0 0.00 0.01 0.00 75 1014.4
20260901223003 81 235 3.0 7.0 0.00 0.01 0.00 74 1014.5
20260901222504 81 244 3.0 8.0 0.00 0.01 0.00 74 1014.5
20260901222003 81 236 3.0 8.0 0.00 0.01 0.00 74 1014.6
20260901221503 81 235 4.0 8.0 0.00 0.01 0.00 74 1014.6
20260901221003 81 241 4.0 12.0 0.00 0.01 0.00 74 1014.6
20260901220503 81 235 3.0 12.0 0.00 0.01 0.00 74 1014.6
20260901220003 81 224 3.0 10.0 0.00 0.01 0.00 74 1014.6
20260901215503 82 231 4.0 10.0 0.00 0.01 0.00 74 1014.6
20260901215003 82 233 4.0 9.0 0.00 0.01 0.00 74 1014.4
20260901214503 82 229 3.0 9.0 0.00 0.01 0.00 74 1014.5
20260901214003 82 224 3.0 10.0 0.00 0.01 0.00 74 1014.4
20260901213524 82 214 3.0 10.0 0.00 0.01 0.00 74 1014.4
20260901213003 82 210 3.0 7.0 0.00 0.01 0.00 74 1014.2
20260901212503 82 233 3.0 8.0 0.00 0.01 0.00 74 1014.5
20260901212003 82 245 4.0 10.0 0.00 0.01 0.00 74 1014.5
20260901211524 82 236 4.0 10.0 0.00 0.01 0.00 73 1014.6
20260901211003 82 226 3.0 8.0 0.00 0.01 0.00 74 1014.6
20260901210503 82 218 3.0 8.0 0.00 0.01 0.00 74 1014.6
20260901210003 82 215 3.0 11.0 0.00 0.01 0.00 74 1014.5
20260901205503 82 229 4.0 12.0 0.00 0.01 0.00 74 1014.4
20260901205024 82 242 4.0 12.0 0.00 0.01 0.00 74 1014.5
20260901204503 82 237 5.0 11.0 0.00 0.01 0.00 74 1014.4
20260901204024 82 222 5.0 11.0 0.00 0.01 0.00 74 1014.4
20260901203503 82 216 5.0 10.0 0.00 0.01 0.00 74 1014.5
20260901203003 82 217 5.0 11.0 0.00 0.01 0.00 74 1014.6
20260901202503 82 222 4.0 11.0 0.00 0.01 0.00 74 1014.6
20260901202024 82 216 4.0 10.0 0.00 0.01 0.00 74 1014.6
20260901201503 82 216 4.0 10.0 0.00 0.01 0.00 74 1014.7
20260901201003 82 218 4.0 10.0 0.00 0.01 0.00 75 1014.7
20260901200503 81 212 3.0 9.0 0.00 0.01 0.00 75 1014.7
20260901200024 81 216 3.0 9.0 0.00 0.02 0.00 76 1014.7
20260901195503 81 212 3.0 8.0 0.00 0.02 0.00 76 1014.5
20260901195003 81 219 4.0 9.0 0.00 0.02 0.00 76 1014.6
20260901194503 81 226 4.0 9.0 0.00 0.03 0.00 76 1014.7
20260901194003 81 217 3.0 8.0 0.00 0.03 0.00 76 1014.7
20260901193503 81 216 3.0 9.0 0.00 0.03 0.00 76 1014.6
20260901193003 81 204 4.0 10.0 0.00 0.04 0.00 76 1014.5
20260901192503 81 194 4.0 10.0 0.00 0.04 0.00 76 1014.5
20260901192003 81 200 5.0 12.0 0.00 0.04 0.00 75 1014.5
20260901191524 81 207 5.0 12.0 0.00 0.04 0.00 75 1014.6
20260901191003 81 220 4.0 12.0 0.00 0.05 0.00 76 1014.6
20260901190503 81 218 4.0 8.0 0.00 0.05 0.00 75 1014.7
20260901190003 81 215 5.0 15.0 0.00 0.05 0.00 75 1014.7
20260901185503 82 218 5.0 15.0 0.00 0.05 0.00 74 1014.7
20260901185024 82 216 5.0 13.0 0.00 0.05 0.00 74 1014.7
20260901184503 81 214 4.0 13.0 0.00 0.06 0.00 75 1014.7
20260901184003 82 214 4.0 11.0 0.00 0.06 0.00 74 1014.9
20260901183504 82 218 4.0 11.0 0.00 0.08 0.00 74 1014.8
20260901183003 82 226 5.0 11.0 0.00 0.09 0.00 75 1014.8
20260901182503 81 221 6.0 15.0 0.00 0.09 0.00 74 1014.9
20260901182003 81 218 6.0 15.0 0.00 0.09 0.00 73 1014.8
20260901181524 82 215 5.0 10.0 0.00 0.09 0.00 75 1014.6
20260901181003 82 216 4.0 12.0 0.00 0.09 0.00 74 1014.7
20260901180503 81 240 5.0 12.0 0.00 0.10 0.00 74 1014.7
20260901180003 81 256 5.0 12.0 0.00 0.11 0.00 75 1014.6
20260901175503 81 256 5.0 12.0 0.00 0.11 0.00 74 1014.7
20260901175003 82 248 5.0 15.0 0.00 0.11 0.00 74 1014.6
20260901174503 82 245 5.0 15.0 0.00 0.11 0.00 73 1014.5
20260901174003 82 239 4.0 11.0 0.00 0.11 0.00 74 1014.5
20260901173503 82 234 4.0 11.0 0.00 0.12 0.00 75 1014.4
20260901173003 82 226 4.0 11.0 0.00 0.12 0.00 74 1014.3
20260901172503 81 214 4.0 9.0 0.00 0.12 0.00 75 1014.1
20260901172003 81 214 3.0 8.0 0.00 0.12 0.00 76 1014.2
20260901171503 80 244 4.0 12.0 0.00 0.12 0.00 76 1014.1
20260901171024 80 260 5.0 12.0 0.00 0.12 0.00 76 1014.1
20260901170503 80 252 4.0 10.0 0.00 0.12 0.00 76 1014.0
20260901170003 80 226 4.0 8.0 0.00 0.12 0.00 76 1014.0
20260901165503 80 234 4.0 9.0 0.00 0.12 0.00 77 1014.1
20260901165003 80 239 4.0 9.0 0.00 0.12 0.00 77 1014.1
20260901164503 80 216 4.0 9.0 0.00 0.12 0.00 77 1014.2
20260901164003 80 212 3.0 8.0 0.00 0.12 0.00 78 1014.2
20260901163524 80 198 4.0 11.0 0.00 0.12 0.00 77 1014.2
20260901163024 80 200 5.0 11.0 0.00 0.12 0.00 76 1014.2